TimeCST,TemperatureF,Dew PointF,Humidity,Sea Level PressureIn,VisibilityMPH,Wind Direction,Wind SpeedMPH,Gust SpeedMPH,PrecipitationIn,Events,Conditions,WindDirDegrees,DateUTC
12:53 AM,64.9,54.0,68,29.86,10.0,SSE,16.1,-,N/A,,Mostly Cloudy,160,2011-11-06 05:53:00
1:53 AM,64.9,55.0,70,29.86,10.0,South,15.0,23.0,N/A,,Mostly Cloudy,170,2011-11-06 06:53:00
1:53 AM,64.9,55.9,73,29.88,10.0,SSE,15.0,-,N/A,,Mostly Cloudy,160,2011-11-06 07:53:00
2:10 AM,64.4,55.4,73,29.92,10.0,South,11.5,20.7,N/A,,Mostly Cloudy,180,2011-11-06 08:10:00
2:53 AM,64.9,57.0,75,29.92,10.0,South,9.2,-,N/A,,Overcast,170,2011-11-06 08:53:00
3:53 AM,64.9,57.0,75,29.92,10.0,SSE,12.7,-,N/A,,Overcast,160,2011-11-06 09:53:00
4:53 AM,64.9,57.9,78,29.94,10.0,SSE,11.5,-,N/A,,Overcast,160,2011-11-06 10:53:00
5:53 AM,64.9,57.9,78,29.95,10.0,SSE,11.5,-,N/A,,Overcast,160,2011-11-06 11:53:00
6:53 AM,64.9,57.9,78,29.96,10.0,SSE,13.8,-,N/A,,Overcast,160,2011-11-06 12:53:00
7:40 AM,64.4,57.2,77,29.98,10.0,SSE,15.0,-,N/A,,Overcast,150,2011-11-06 13:40:00
7:53 AM,64.9,59.0,81,29.97,10.0,SSE,12.7,-,N/A,,Overcast,150,2011-11-06 13:53:00
8:15 AM,66.2,59.0,78,29.99,10.0,SSE,13.8,-,N/A,,Overcast,150,2011-11-06 14:15:00
8:48 AM,66.2,59.0,78,29.99,10.0,SSE,15.0,-,N/A,,Mostly Cloudy,160,2011-11-06 14:48:00
8:53 AM,66.9,59.0,76,29.98,10.0,SSE,16.1,-,N/A,,Mostly Cloudy,160,2011-11-06 14:53:00
9:53 AM,68.0,60.1,76,29.99,10.0,South,12.7,20.7,N/A,,Overcast,170,2011-11-06 15:53:00
10:41 AM,69.8,60.8,73,30.01,10.0,South,13.8,-,N/A,,Overcast,170,2011-11-06 16:41:00
10:53 AM,71.1,61.0,70,29.99,10.0,South,16.1,-,N/A,,Overcast,170,2011-11-06 16:53:00
11:53 AM,73.0,62.1,68,29.97,10.0,South,13.8,20.7,N/A,,Overcast,180,2011-11-06 17:53:00
12:53 PM,75.0,63.0,66,29.94,10.0,South,17.3,26.5,N/A,,Overcast,180,2011-11-06 18:53:00
1:11 PM,75.2,62.6,65,29.95,10.0,South,17.3,23.0,N/A,,Mostly Cloudy,180,2011-11-06 19:11:00
1:53 PM,75.9,64.0,67,29.92,10.0,South,19.6,23.0,N/A,,Mostly Cloudy,170,2011-11-06 19:53:00
2:53 PM,77.0,64.0,64,29.91,10.0,South,13.8,-,N/A,,Mostly Cloudy,170,2011-11-06 20:53:00
3:53 PM,77.0,64.0,64,29.91,10.0,South,10.4,-,N/A,,Mostly Cloudy,180,2011-11-06 21:53:00
4:53 PM,77.0,64.0,64,29.91,10.0,SSE,16.1,19.6,N/A,,Mostly Cloudy,160,2011-11-06 22:53:00
5:53 PM,75.0,64.0,69,29.92,10.0,SSE,13.8,-,N/A,,Mostly Cloudy,150,2011-11-06 23:53:00
6:53 PM,73.9,63.0,68,29.94,10.0,SE,12.7,-,N/A,,Mostly Cloudy,140,2011-11-07 00:53:00
7:53 PM,73.9,63.0,68,29.94,10.0,SSE,13.8,20.7,N/A,,Mostly Cloudy,150,2011-11-07 01:53:00
8:53 PM,73.4,62.6,69,29.97,10.0,SSE,13.8,-,N/A,,Mostly Cloudy,160,2011-11-07 02:53:00
9:53 PM,72.0,63.0,73,29.96,10.0,South,15.0,21.9,N/A,,Scattered Clouds,170,2011-11-07 03:53:00
10:53 PM,73.0,63.0,71,29.96,10.0,South,19.6,-,N/A,,Mostly Cloudy,170,2011-11-07 04:53:00